owner,sensor,date,latitude,longitude,vertical_datum,wind_speed,wind_to_direction,wind_speed_of_gust,qcFlag 
LOOP,urn:ioos:station:wmo:lopl1:1,2018-03-01T00:05:00Z,28.8850,-90.0250,10.0,8.2,-9999.0,9.8,'1111122,1111122,1111122' 
LOOP,urn:ioos:station:wmo:lopl1:1,2018-03-01T01:05:00Z,28.8850,-90.0250,10.0,6.7,-9999.0,8.8,'1111122,1111122,1111122' 
LOOP,urn:ioos:station:wmo:lopl1:1,2018-03-01T02:05:00Z,28.8850,-90.0250,10.0,7.2,-9999.0,9.3,'1111122,1111122,1111122' 
LOOP,urn:ioos:station:wmo:lopl1:1,2018-03-01T03:15:00Z,28.8850,-90.0250,10.0,7.7,-9999.0,10.3,'1111122,1111122,1111122' 
LOOP,urn:ioos:station:wmo:lopl1:1,2018-03-01T04:15:00Z,28.8850,-90.0250,10.0,8.8,-9999.0,10.8,'1111122,1111122,1111122' 
LOOP,urn:ioos:station:wmo:lopl1:1,2018-03-01T05:15:00Z,28.8850,-90.0250,10.0,8.2,-9999.0,10.8,'1111122,1111122,1111122' 
LOOP,urn:ioos:station:wmo:lopl1:1,2018-03-01T06:15:00Z,28.8850,-90.0250,10.0,8.8,-9999.0,11.8,'1111122,1111122,1111122' 
LOOP,urn:ioos:station:wmo:lopl1:1,2018-03-01T07:15:00Z,28.8850,-90.0250,10.0,10.3,-9999.0,12.4,'1111122,1111122,1111122' 
LOOP,urn:ioos:station:wmo:lopl1:1,2018-03-01T08:15:00Z,28.8850,-90.0250,10.0,10.3,-9999.0,11.8,'1111122,1111122,1111122' 
LOOP,urn:ioos:station:wmo:lopl1:1,2018-03-01T09:15:00Z,28.8850,-90.0250,10.0,10.3,-9999.0,11.8,'1111122,1111122,1111122' 
LOOP,urn:ioos:station:wmo:lopl1:1,2018-03-01T10:15:00Z,28.8850,-90.0250,10.0,10.3,-9999.0,11.3,'1111122,1111122,1111122' 
LOOP,urn:ioos:station:wmo:lopl1:1,2018-03-01T11:15:00Z,28.8850,-90.0250,10.0,8.2,-9999.0,10.3,'1111122,1111122,1111122' 
LOOP,urn:ioos:station:wmo:lopl1:1,2018-03-01T12:15:00Z,28.8850,-90.0250,10.0,8.8,-9999.0,10.3,'1111122,1111122,1111122' 
LOOP,urn:ioos:station:wmo:lopl1:1,2018-03-01T13:15:00Z,28.8850,-90.0250,10.0,7.7,-9999.0,8.8,'1111122,1111122,1111122' 
LOOP,urn:ioos:station:wmo:lopl1:1,2018-03-01T14:15:00Z,28.8850,-90.0250,10.0,10.3,-9999.0,11.3,'1111122,1111122,1111122' 
LOOP,urn:ioos:station:wmo:lopl1:1,2018-03-01T15:15:00Z,28.8850,-90.0250,10.0,7.7,-9999.0,8.8,'1111122,1111122,1111122' 
LOOP,urn:ioos:station:wmo:lopl1:1,2018-03-01T16:15:00Z,28.8850,-90.0250,10.0,5.7,-9999.0,7.2,'1111122,1111122,1111122' 
LOOP,urn:ioos:station:wmo:lopl1:1,2018-03-01T17:15:00Z,28.8850,-90.0250,10.0,4.6,-9999.0,6.7,'1111122,1111122,1111122' 
LOOP,urn:ioos:station:wmo:lopl1:1,2018-03-01T18:15:00Z,28.8850,-90.0250,10.0,6.2,-9999.0,8.2,'1111122,1111122,1111122' 
LOOP,urn:ioos:station:wmo:lopl1:1,2018-03-01T19:15:00Z,28.8850,-90.0250,10.0,3.6,290.0,5.1,'1111122,1111122,1111122' 
LOOP,urn:ioos:station:wmo:lopl1:1,2018-03-01T20:20:00Z,28.8850,-90.0250,10.0,2.1,280.0,4.1,'1111122,1111122,1111122' 
LOOP,urn:ioos:station:wmo:lopl1:1,2018-03-01T21:20:00Z,28.8850,-90.0250,10.0,2.1,260.0,3.6,'1111122,1111122,1111122' 
LOOP,urn:ioos:station:wmo:lopl1:1,2018-03-01T22:20:00Z,28.8850,-90.0250,10.0,3.1,280.0,4.1,'1111122,1111122,1111122' 
LOOP,urn:ioos:station:wmo:lopl1:1,2018-03-01T23:20:00Z,28.8850,-90.0250,10.0,2.6,290.0,3.1,'1111122,1111122,1111122' 
LOOP,urn:ioos:station:wmo:lopl1:1,2018-03-02T00:20:00Z,28.8850,-90.0250,10.0,3.1,290.0,4.1,'1111122,1111122,1111122' 
LOOP,urn:ioos:station:wmo:lopl1:1,2018-03-02T01:20:00Z,28.8850,-90.0250,10.0,3.1,300.0,4.1,'1111122,1111122,1111122' 
LOOP,urn:ioos:station:wmo:lopl1:1,2018-03-02T02:20:00Z,28.8850,-90.0250,10.0,9.8,10.0,11.8,'1111122,1111122,1111122' 
LOOP,urn:ioos:station:wmo:lopl1:1,2018-03-02T03:20:00Z,28.8850,-90.0250,10.0,11.3,20.0,13.4,'1111122,1111122,1111122' 
LOOP,urn:ioos:station:wmo:lopl1:1,2018-03-02T04:20:00Z,28.8850,-90.0250,10.0,10.8,20.0,12.4,'1111122,1111122,1111122' 
LOOP,urn:ioos:station:wmo:lopl1:1,2018-03-02T05:20:00Z,28.8850,-90.0250,10.0,12.9,20.0,15.4,'1111122,1111122,1111122' 
LOOP,urn:ioos:station:wmo:lopl1:1,2018-03-02T06:20:00Z,28.8850,-90.0250,10.0,12.9,30.0,15.4,'1111122,1111122,1111122' 
LOOP,urn:ioos:station:wmo:lopl1:1,2018-03-02T07:20:00Z,28.8850,-90.0250,10.0,12.9,30.0,14.4,'1111122,1111122,1111122' 
LOOP,urn:ioos:station:wmo:lopl1:1,2018-03-02T08:20:00Z,28.8850,-90.0250,10.0,12.9,30.0,15.4,'1111122,1111122,1111122' 
LOOP,urn:ioos:station:wmo:lopl1:1,2018-03-02T09:20:00Z,28.8850,-90.0250,10.0,11.8,40.0,13.9,'1111122,1111122,1111122' 
LOOP,urn:ioos:station:wmo:lopl1:1,2018-03-02T10:20:00Z,28.8850,-90.0250,10.0,12.4,30.0,15.4,'1111122,1111122,1111122' 
LOOP,urn:ioos:station:wmo:lopl1:1,2018-03-02T11:20:00Z,28.8850,-90.0250,10.0,11.3,40.0,13.4,'1111122,1111122,1111122' 
LOOP,urn:ioos:station:wmo:lopl1:1,2018-03-02T12:20:00Z,28.8850,-90.0250,10.0,11.8,40.0,13.9,'1111122,1111122,1111122' 
LOOP,urn:ioos:station:wmo:lopl1:1,2018-03-02T13:20:00Z,28.8850,-90.0250,10.0,11.3,50.0,14.9,'1111122,1111122,1111122' 
LOOP,urn:ioos:station:wmo:lopl1:1,2018-03-02T14:20:00Z,28.8850,-90.0250,10.0,9.3,40.0,11.3,'1111122,1111122,1111122' 
LOOP,urn:ioos:station:wmo:lopl1:1,2018-03-02T15:20:00Z,28.8850,-90.0250,10.0,9.8,40.0,12.9,'1111122,1111122,1111122' 
LOOP,urn:ioos:station:wmo:lopl1:1,2018-03-02T16:20:00Z,28.8850,-90.0250,10.0,11.3,40.0,13.9,'1111122,1111122,1111122' 
LOOP,urn:ioos:station:wmo:lopl1:1,2018-03-02T17:20:00Z,28.8850,-90.0250,10.0,11.8,40.0,14.9,'1111122,1111122,1111122' 
LOOP,urn:ioos:station:wmo:lopl1:1,2018-03-02T18:20:00Z,28.8850,-90.0250,10.0,9.8,30.0,12.4,'1111122,1111122,1111122' 
LOOP,urn:ioos:station:wmo:lopl1:1,2018-03-02T19:20:00Z,28.8850,-90.0250,10.0,7.7,40.0,10.3,'1111122,1111122,1111122' 
LOOP,urn:ioos:station:wmo:lopl1:1,2018-03-02T20:20:00Z,28.8850,-90.0250,10.0,7.2,60.0,9.3,'1111122,1111122,1111122' 
LOOP,urn:ioos:station:wmo:lopl1:1,2018-03-02T21:20:00Z,28.8850,-90.0250,10.0,7.7,50.0,9.8,'1111122,1111122,1111122' 
LOOP,urn:ioos:station:wmo:lopl1:1,2018-03-02T22:20:00Z,28.8850,-90.0250,10.0,7.2,70.0,9.3,'1111122,1111122,1111122' 
LOOP,urn:ioos:station:wmo:lopl1:1,2018-03-02T23:20:00Z,28.8850,-90.0250,10.0,6.2,60.0,7.7,'1111122,1111122,1111122' 
LOOP,urn:ioos:station:wmo:lopl1:1,2018-03-03T00:20:00Z,28.8850,-90.0250,10.0,5.7,60.0,7.2,'1111122,1111122,1111122' 
LOOP,urn:ioos:station:wmo:lopl1:1,2018-03-03T02:05:00Z,28.8850,-90.0250,10.0,7.2,30.0,8.7,'11111222,11111222,11111222' 
LOOP,urn:ioos:station:wmo:lopl1:1,2018-03-03T02:25:00Z,28.8850,-90.0250,10.0,7.2,40.0,8.8,'1111122,1111122,1111122' 
LOOP,urn:ioos:station:wmo:lopl1:1,2018-03-03T03:25:00Z,28.8850,-90.0250,10.0,6.2,50.0,7.7,'1111122,1111122,1111122' 
LOOP,urn:ioos:station:wmo:lopl1:1,2018-03-03T04:25:00Z,28.8850,-90.0250,10.0,6.2,40.0,8.2,'1111122,1111122,1111122' 
LOOP,urn:ioos:station:wmo:lopl1:1,2018-03-03T05:25:00Z,28.8850,-90.0250,10.0,6.2,40.0,8.2,'1111122,1111122,1111122' 
LOOP,urn:ioos:station:wmo:lopl1:1,2018-03-03T06:25:00Z,28.8850,-90.0250,10.0,7.2,50.0,9.3,'1111122,1111122,1111122' 
LOOP,urn:ioos:station:wmo:lopl1:1,2018-03-03T07:25:00Z,28.8850,-90.0250,10.0,7.2,50.0,9.3,'1111122,1111122,1111122' 
LOOP,urn:ioos:station:wmo:lopl1:1,2018-03-03T08:25:00Z,28.8850,-90.0250,10.0,9.3,60.0,10.3,'1111122,1111122,1111122' 
LOOP,urn:ioos:station:wmo:lopl1:1,2018-03-03T09:25:00Z,28.8850,-90.0250,10.0,8.2,60.0,10.8,'1111122,1111122,1111122' 
LOOP,urn:ioos:station:wmo:lopl1:1,2018-03-03T10:25:00Z,28.8850,-90.0250,10.0,8.2,60.0,10.8,'1111122,1111122,1111122' 
LOOP,urn:ioos:station:wmo:lopl1:1,2018-03-03T11:25:00Z,28.8850,-90.0250,10.0,8.8,60.0,11.8,'1111122,1111122,1111122' 
LOOP,urn:ioos:station:wmo:lopl1:1,2018-03-03T12:25:00Z,28.8850,-90.0250,10.0,8.8,70.0,11.3,'1111122,1111122,1111122' 
LOOP,urn:ioos:station:wmo:lopl1:1,2018-03-03T13:25:00Z,28.8850,-90.0250,10.0,8.2,70.0,10.8,'1111122,1111122,1111122' 
LOOP,urn:ioos:station:wmo:lopl1:1,2018-03-03T14:25:00Z,28.8850,-90.0250,10.0,8.8,50.0,11.3,'1111122,1111122,1111122' 
LOOP,urn:ioos:station:wmo:lopl1:1,2018-03-03T15:25:00Z,28.8850,-90.0250,10.0,9.3,70.0,11.3,'1111122,1111122,1111122' 
LOOP,urn:ioos:station:wmo:lopl1:1,2018-03-03T16:25:00Z,28.8850,-90.0250,10.0,9.8,70.0,11.3,'1111122,1111122,1111122' 
LOOP,urn:ioos:station:wmo:lopl1:1,2018-03-03T17:25:00Z,28.8850,-90.0250,10.0,8.2,60.0,10.3,'1111122,1111122,1111122' 
LOOP,urn:ioos:station:wmo:lopl1:1,2018-03-03T18:25:00Z,28.8850,-90.0250,10.0,6.7,70.0,8.2,'1111122,1111122,1111122' 
LOOP,urn:ioos:station:wmo:lopl1:1,2018-03-03T19:25:00Z,28.8850,-90.0250,10.0,6.2,60.0,8.2,'1111122,1111122,1111122' 
LOOP,urn:ioos:station:wmo:lopl1:1,2018-03-03T20:25:00Z,28.8850,-90.0250,10.0,5.7,50.0,7.2,'1111122,1111122,1111122' 
LOOP,urn:ioos:station:wmo:lopl1:1,2018-03-03T21:25:00Z,28.8850,-90.0250,10.0,5.7,90.0,6.7,'1111122,1111122,1111122' 
LOOP,urn:ioos:station:wmo:lopl1:1,2018-03-03T22:25:00Z,28.8850,-90.0250,10.0,5.1,70.0,6.2,'1111122,1111122,1111122' 
LOOP,urn:ioos:station:wmo:lopl1:1,2018-03-03T23:25:00Z,28.8850,-90.0250,10.0,4.6,60.0,5.7,'1111122,1111122,1111122' 
LOOP,urn:ioos:station:wmo:lopl1:1,2018-03-04T00:25:00Z,28.8850,-90.0250,10.0,5.1,60.0,6.7,'1111122,1111122,1111122' 
LOOP,urn:ioos:station:wmo:lopl1:1,2018-03-04T01:25:00Z,28.8850,-90.0250,10.0,5.1,70.0,6.2,'1111122,1111122,1111122' 
LOOP,urn:ioos:station:wmo:lopl1:1,2018-03-04T02:25:00Z,28.8850,-90.0250,10.0,5.1,80.0,5.7,'1111122,1111122,1111122' 
LOOP,urn:ioos:station:wmo:lopl1:1,2018-03-04T03:30:00Z,28.8850,-90.0250,10.0,4.6,60.0,6.2,'1111122,1111122,1111122' 
LOOP,urn:ioos:station:wmo:lopl1:1,2018-03-04T04:30:00Z,28.8850,-90.0250,10.0,4.1,50.0,5.7,'1111122,1111122,1111122' 
LOOP,urn:ioos:station:wmo:lopl1:1,2018-03-04T05:30:00Z,28.8850,-90.0250,10.0,4.6,80.0,5.1,'1111122,1111122,1111122' 
LOOP,urn:ioos:station:wmo:lopl1:1,2018-03-04T06:30:00Z,28.8850,-90.0250,10.0,3.6,80.0,4.6,'1111122,1111122,1111122' 
LOOP,urn:ioos:station:wmo:lopl1:1,2018-03-04T07:30:00Z,28.8850,-90.0250,10.0,3.6,90.0,4.1,'1111122,1111122,1111122' 
LOOP,urn:ioos:station:wmo:lopl1:1,2018-03-04T08:30:00Z,28.8850,-90.0250,10.0,4.1,90.0,5.1,'1111122,1111122,1111122' 
LOOP,urn:ioos:station:wmo:lopl1:1,2018-03-04T09:30:00Z,28.8850,-90.0250,10.0,4.6,60.0,6.2,'1111122,1111122,1111122' 
LOOP,urn:ioos:station:wmo:lopl1:1,2018-03-04T10:30:00Z,28.8850,-90.0250,10.0,5.1,70.0,6.2,'1111122,1111122,1111122' 
LOOP,urn:ioos:station:wmo:lopl1:1,2018-03-04T11:30:00Z,28.8850,-90.0250,10.0,6.2,70.0,6.7,'1111122,1111122,1111122' 
LOOP,urn:ioos:station:wmo:lopl1:1,2018-03-04T12:30:00Z,28.8850,-90.0250,10.0,6.2,50.0,8.2,'1111122,1111122,1111122' 
LOOP,urn:ioos:station:wmo:lopl1:1,2018-03-04T13:30:00Z,28.8850,-90.0250,10.0,6.2,50.0,7.7,'1111122,1111122,1111122' 
LOOP,urn:ioos:station:wmo:lopl1:1,2018-03-04T14:30:00Z,28.8850,-90.0250,10.0,6.7,70.0,9.3,'1111122,1111122,1111122' 
LOOP,urn:ioos:station:wmo:lopl1:1,2018-03-04T15:30:00Z,28.8850,-90.0250,10.0,7.2,80.0,8.2,'1111122,1111122,1111122' 
LOOP,urn:ioos:station:wmo:lopl1:1,2018-03-04T16:30:00Z,28.8850,-90.0250,10.0,8.2,80.0,9.3,'1111122,1111122,1111122' 
LOOP,urn:ioos:station:wmo:lopl1:1,2018-03-04T17:40:00Z,28.8850,-90.0250,10.0,7.7,80.0,8.8,'1111122,1111122,1111122' 
LOOP,urn:ioos:station:wmo:lopl1:1,2018-03-04T18:40:00Z,28.8850,-90.0250,10.0,6.7,70.0,7.2,'1111122,1111122,1111122' 
LOOP,urn:ioos:station:wmo:lopl1:1,2018-03-04T19:40:00Z,28.8850,-90.0250,10.0,6.2,70.0,7.2,'1111122,1111122,1111122' 
LOOP,urn:ioos:station:wmo:lopl1:1,2018-03-04T20:40:00Z,28.8850,-90.0250,10.0,6.2,80.0,6.7,'1111122,1111122,1111122' 
LOOP,urn:ioos:station:wmo:lopl1:1,2018-03-04T21:40:00Z,28.8850,-90.0250,10.0,6.2,70.0,6.7,'1111122,1111122,1111122' 
LOOP,urn:ioos:station:wmo:lopl1:1,2018-03-04T22:40:00Z,28.8850,-90.0250,10.0,6.2,80.0,7.2,'1111122,1111122,1111122' 
LOOP,urn:ioos:station:wmo:lopl1:1,2018-03-04T23:40:00Z,28.8850,-90.0250,10.0,6.2,80.0,6.7,'1111122,1111122,1111122' 
LOOP,urn:ioos:station:wmo:lopl1:1,2018-03-05T00:40:00Z,28.8850,-90.0250,10.0,6.7,80.0,7.2,'1111122,1111122,1111122' 
LOOP,urn:ioos:station:wmo:lopl1:1,2018-03-05T01:40:00Z,28.8850,-90.0250,10.0,6.2,90.0,6.7,'1111122,1111122,1111122' 
LOOP,urn:ioos:station:wmo:lopl1:1,2018-03-05T02:40:00Z,28.8850,-90.0250,10.0,6.2,80.0,6.2,'1111122,1111122,1111122' 
LOOP,urn:ioos:station:wmo:lopl1:1,2018-03-05T03:40:00Z,28.8850,-90.0250,10.0,5.7,80.0,6.2,'1111122,1111122,1111122' 
LOOP,urn:ioos:station:wmo:lopl1:1,2018-03-05T04:40:00Z,28.8850,-90.0250,10.0,5.1,100.0,5.7,'1111122,1111122,1111122' 
LOOP,urn:ioos:station:wmo:lopl1:1,2018-03-05T05:40:00Z,28.8850,-90.0250,10.0,5.1,110.0,5.7,'1111122,1111122,1111122' 
LOOP,urn:ioos:station:wmo:lopl1:1,2018-03-05T06:40:00Z,28.8850,-90.0250,10.0,6.6,147.0,7.7,'11111222,11111222,11111222' 
LOOP,urn:ioos:station:wmo:lopl1:1,2018-03-05T07:40:00Z,28.8850,-90.0250,10.0,5.0,156.0,6.3,'11111222,11111222,11111222' 
LOOP,urn:ioos:station:wmo:lopl1:1,2018-03-05T08:40:00Z,28.8850,-90.0250,10.0,4.5,163.0,5.1,'11111222,11111222,11111222' 
LOOP,urn:ioos:station:wmo:lopl1:1,2018-03-05T09:40:00Z,28.8850,-90.0250,10.0,7.2,160.0,8.2,'1111122,1111122,1111122' 
LOOP,urn:ioos:station:wmo:lopl1:1,2018-03-05T10:45:00Z,28.8850,-90.0250,10.0,7.2,-9999.0,9.3,'1111122,1111122,1111122' 
LOOP,urn:ioos:station:wmo:lopl1:1,2018-03-05T11:45:00Z,28.8850,-90.0250,10.0,6.2,-9999.0,9.3,'1111122,1111122,1111122' 
LOOP,urn:ioos:station:wmo:lopl1:1,2018-03-05T12:45:00Z,28.8850,-90.0250,10.0,6.7,-9999.0,9.8,'1111122,1111122,1111122' 
LOOP,urn:ioos:station:wmo:lopl1:1,2018-03-05T13:45:00Z,28.8850,-90.0250,10.0,5.7,-9999.0,7.7,'1111122,1111122,1111122' 
LOOP,urn:ioos:station:wmo:lopl1:1,2018-03-05T14:45:00Z,28.8850,-90.0250,10.0,6.7,-9999.0,7.7,'1111122,1111122,1111122' 
LOOP,urn:ioos:station:wmo:lopl1:1,2018-03-05T16:15:00Z,28.8850,-90.0250,10.0,6.7,-9999.0,7.7,'1111122,1111122,1111122' 
LOOP,urn:ioos:station:wmo:lopl1:1,2018-03-05T17:15:00Z,28.8850,-90.0250,10.0,5.7,-9999.0,6.2,'1111122,1111122,1111122' 
LOOP,urn:ioos:station:wmo:lopl1:1,2018-03-05T18:15:00Z,28.8850,-90.0250,10.0,4.6,-9999.0,5.1,'1111122,1111122,1111122' 
LOOP,urn:ioos:station:wmo:lopl1:1,2018-03-05T19:15:00Z,28.8850,-90.0250,10.0,4.6,-9999.0,5.7,'1111122,1111122,1111122' 
LOOP,urn:ioos:station:wmo:lopl1:1,2018-03-05T20:15:00Z,28.8850,-90.0250,10.0,4.6,-9999.0,6.2,'1111122,1111122,1111122' 
LOOP,urn:ioos:station:wmo:lopl1:1,2018-03-05T21:15:00Z,28.8850,-90.0250,10.0,2.6,-9999.0,4.1,'1111122,1111122,1111122' 
LOOP,urn:ioos:station:wmo:lopl1:1,2018-03-05T22:15:00Z,28.8850,-90.0250,10.0,1.5,270.0,3.1,'1111122,1111122,1111122' 
LOOP,urn:ioos:station:wmo:lopl1:1,2018-03-05T23:15:00Z,28.8850,-90.0250,10.0,2.6,-9999.0,2.6,'1111122,1111122,1111122' 
LOOP,urn:ioos:station:wmo:lopl1:1,2018-03-06T00:15:00Z,28.8850,-90.0250,10.0,1.5,-9999.0,2.6,'1111122,1111122,1111122' 
LOOP,urn:ioos:station:wmo:lopl1:1,2018-03-06T01:15:00Z,28.8850,-90.0250,10.0,2.6,-9999.0,3.1,'1111122,1111122,1111122' 
LOOP,urn:ioos:station:wmo:lopl1:1,2018-03-06T02:15:00Z,28.8850,-90.0250,10.0,5.1,170.0,6.7,'1111122,1111122,1111122' 
LOOP,urn:ioos:station:wmo:lopl1:1,2018-03-06T03:15:00Z,28.8850,-90.0250,10.0,4.6,-9999.0,6.2,'1111122,1111122,1111122' 
LOOP,urn:ioos:station:wmo:lopl1:1,2018-03-06T04:25:00Z,28.8850,-90.0250,10.0,5.1,-9999.0,6.7,'1111122,1111122,1111122' 
LOOP,urn:ioos:station:wmo:lopl1:1,2018-03-06T05:25:00Z,28.8850,-90.0250,10.0,7.2,-9999.0,8.8,'1111122,1111122,1111122' 
LOOP,urn:ioos:station:wmo:lopl1:1,2018-03-06T06:25:00Z,28.8850,-90.0250,10.0,9.3,-9999.0,10.3,'1111122,1111122,1111122' 
LOOP,urn:ioos:station:wmo:lopl1:1,2018-03-06T07:25:00Z,28.8850,-90.0250,10.0,9.8,-9999.0,11.8,'1111122,1111122,1111122' 
LOOP,urn:ioos:station:wmo:lopl1:1,2018-03-06T08:25:00Z,28.8850,-90.0250,10.0,4.6,260.0,7.7,'1111122,1111122,1111122' 
LOOP,urn:ioos:station:wmo:lopl1:1,2018-03-06T09:25:00Z,28.8850,-90.0250,10.0,8.2,-9999.0,10.3,'1111122,1111122,1111122' 
LOOP,urn:ioos:station:wmo:lopl1:1,2018-03-06T10:25:00Z,28.8850,-90.0250,10.0,8.2,-9999.0,10.3,'1111122,1111122,1111122' 
LOOP,urn:ioos:station:wmo:lopl1:1,2018-03-06T11:25:00Z,28.8850,-90.0250,10.0,8.8,-9999.0,8.8,'1111122,1111122,1111122' 
LOOP,urn:ioos:station:wmo:lopl1:1,2018-03-06T12:25:00Z,28.8850,-90.0250,10.0,7.7,-9999.0,10.3,'1111122,1111122,1111122' 
LOOP,urn:ioos:station:wmo:lopl1:1,2018-03-06T13:25:00Z,28.8850,-90.0250,10.0,6.2,-9999.0,9.8,'1111122,1111122,1111122' 
LOOP,urn:ioos:station:wmo:lopl1:1,2018-03-06T14:30:00Z,28.8850,-90.0250,10.0,5.7,340.0,9.3,'1111122,1111122,1111122' 
LOOP,urn:ioos:station:wmo:lopl1:1,2018-03-06T15:30:00Z,28.8850,-90.0250,10.0,3.6,10.0,5.1,'1111122,1111122,1111122' 
LOOP,urn:ioos:station:wmo:lopl1:1,2018-03-06T16:30:00Z,28.8850,-90.0250,10.0,5.1,360.0,6.7,'1111122,1111122,1111122' 
LOOP,urn:ioos:station:wmo:lopl1:1,2018-03-06T17:30:00Z,28.8850,-90.0250,10.0,4.1,340.0,5.7,'1111122,1111122,1111122' 
LOOP,urn:ioos:station:wmo:lopl1:1,2018-03-06T18:30:00Z,28.8850,-90.0250,10.0,4.1,350.0,6.2,'1111122,1111122,1111122' 
LOOP,urn:ioos:station:wmo:lopl1:1,2018-03-06T19:30:00Z,28.8850,-90.0250,10.0,6.2,340.0,8.8,'1111122,1111122,1111122' 
LOOP,urn:ioos:station:wmo:lopl1:1,2018-03-06T20:30:00Z,28.8850,-90.0250,10.0,5.7,340.0,9.3,'1111122,1111122,1111122' 
LOOP,urn:ioos:station:wmo:lopl1:1,2018-03-06T21:30:00Z,28.8850,-90.0250,10.0,5.1,340.0,8.2,'1111122,1111122,1111122' 
LOOP,urn:ioos:station:wmo:lopl1:1,2018-03-06T22:30:00Z,28.8850,-90.0250,10.0,5.1,350.0,7.2,'1111122,1111122,1111122' 
LOOP,urn:ioos:station:wmo:lopl1:1,2018-03-06T23:30:00Z,28.8850,-90.0250,10.0,4.1,330.0,6.7,'1111122,1111122,1111122' 
LOOP,urn:ioos:station:wmo:lopl1:1,2018-03-07T00:30:00Z,28.8850,-90.0250,10.0,6.2,340.0,9.8,'1111122,1111122,1111122' 
LOOP,urn:ioos:station:wmo:lopl1:1,2018-03-07T01:40:00Z,28.8850,-90.0250,10.0,7.2,330.0,9.8,'1111122,1111122,1111122' 
LOOP,urn:ioos:station:wmo:lopl1:1,2018-03-07T02:40:00Z,28.8850,-90.0250,10.0,6.7,310.0,8.8,'1111122,1111122,1111122' 
LOOP,urn:ioos:station:wmo:lopl1:1,2018-03-07T03:40:00Z,28.8850,-90.0250,10.0,5.7,310.0,8.2,'1111122,1111122,1111122' 
LOOP,urn:ioos:station:wmo:lopl1:1,2018-03-07T04:40:00Z,28.8850,-90.0250,10.0,7.7,330.0,11.3,'1111122,1111122,1111122' 
LOOP,urn:ioos:station:wmo:lopl1:1,2018-03-07T05:40:00Z,28.8850,-90.0250,10.0,10.3,350.0,13.4,'1111122,1111122,1111122' 
LOOP,urn:ioos:station:wmo:lopl1:1,2018-03-07T06:40:00Z,28.8850,-90.0250,10.0,10.8,340.0,12.9,'1111122,1111122,1111122' 
LOOP,urn:ioos:station:wmo:lopl1:1,2018-03-07T07:40:00Z,28.8850,-90.0250,10.0,10.3,330.0,14.4,'1111122,1111122,1111122' 
LOOP,urn:ioos:station:wmo:lopl1:1,2018-03-07T08:40:00Z,28.8850,-90.0250,10.0,11.3,340.0,18.0,'1111122,1111122,1111122' 
LOOP,urn:ioos:station:wmo:lopl1:1,2018-03-07T09:40:00Z,28.8850,-90.0250,10.0,8.8,340.0,15.4,'1111122,1111122,1111122' 
LOOP,urn:ioos:station:wmo:lopl1:1,2018-03-07T10:40:00Z,28.8850,-90.0250,10.0,7.7,350.0,12.4,'1111122,1111122,1111122' 
LOOP,urn:ioos:station:wmo:lopl1:1,2018-03-07T11:40:00Z,28.8850,-90.0250,10.0,6.7,330.0,10.3,'1111122,1111122,1111122' 
LOOP,urn:ioos:station:wmo:lopl1:1,2018-03-07T12:40:00Z,28.8850,-90.0250,10.0,6.7,350.0,9.8,'1111122,1111122,1111122' 
LOOP,urn:ioos:station:wmo:lopl1:1,2018-03-07T13:40:00Z,28.8850,-90.0250,10.0,7.2,340.0,10.8,'1111122,1111122,1111122' 
LOOP,urn:ioos:station:wmo:lopl1:1,2018-03-07T14:40:00Z,28.8850,-90.0250,10.0,6.2,350.0,9.3,'1111122,1111122,1111122' 
LOOP,urn:ioos:station:wmo:lopl1:1,2018-03-07T15:40:00Z,28.8850,-90.0250,10.0,5.1,350.0,7.7,'1111122,1111122,1111122' 
LOOP,urn:ioos:station:wmo:lopl1:1,2018-03-07T16:40:00Z,28.8850,-90.0250,10.0,5.1,350.0,7.2,'1111122,1111122,1111122' 
LOOP,urn:ioos:station:wmo:lopl1:1,2018-03-07T17:41:00Z,28.8850,-90.0250,10.0,3.6,340.0,6.2,'1111122,1111122,1111122' 
LOOP,urn:ioos:station:wmo:lopl1:1,2018-03-07T18:41:00Z,28.8850,-90.0250,10.0,3.6,330.0,6.2,'1111122,1111122,1111122' 
LOOP,urn:ioos:station:wmo:lopl1:1,2018-03-07T19:41:00Z,28.8850,-90.0250,10.0,4.1,320.0,7.2,'1111122,1111122,1111122' 
LOOP,urn:ioos:station:wmo:lopl1:1,2018-03-07T20:46:00Z,28.8850,-90.0250,10.0,6.2,320.0,9.3,'1111122,1111122,1111122' 
LOOP,urn:ioos:station:wmo:lopl1:1,2018-03-07T21:46:00Z,28.8850,-90.0250,10.0,4.6,300.0,8.2,'1111122,1111122,1111122' 
LOOP,urn:ioos:station:wmo:lopl1:1,2018-03-07T22:46:00Z,28.8850,-90.0250,10.0,2.6,320.0,5.7,'1111122,1111122,1111122' 
LOOP,urn:ioos:station:wmo:lopl1:1,2018-03-07T23:46:00Z,28.8850,-90.0250,10.0,4.6,320.0,7.7,'1111122,1111122,1111122' 
LOOP,urn:ioos:station:wmo:lopl1:1,2018-03-08T00:46:00Z,28.8850,-90.0250,10.0,5.7,340.0,9.3,'1111122,1111122,1111122' 
LOOP,urn:ioos:station:wmo:lopl1:1,2018-03-08T01:46:00Z,28.8850,-90.0250,10.0,4.1,340.0,7.7,'1111122,1111122,1111122' 
LOOP,urn:ioos:station:wmo:lopl1:1,2018-03-08T02:46:00Z,28.8850,-90.0250,10.0,6.2,330.0,9.8,'1111122,1111122,1111122' 
LOOP,urn:ioos:station:wmo:lopl1:1,2018-03-08T03:46:00Z,28.8850,-90.0250,10.0,5.5,345.0,8.9,'11111222,11111222,11111222' 
LOOP,urn:ioos:station:wmo:lopl1:1,2018-03-08T04:46:00Z,28.8850,-90.0250,10.0,6.7,350.0,12.4,'1111122,1111122,1111122' 
LOOP,urn:ioos:station:wmo:lopl1:1,2018-03-08T05:46:00Z,28.8850,-90.0250,10.0,6.2,360.0,9.3,'1111122,1111122,1111122' 
LOOP,urn:ioos:station:wmo:lopl1:1,2018-03-08T06:46:00Z,28.8850,-90.0250,10.0,5.7,360.0,8.2,'1111122,1111122,1111122' 
LOOP,urn:ioos:station:wmo:lopl1:1,2018-03-08T07:46:00Z,28.8850,-90.0250,10.0,7.7,350.0,10.8,'1111122,1111122,1111122' 
LOOP,urn:ioos:station:wmo:lopl1:1,2018-03-08T08:46:00Z,28.8850,-90.0250,10.0,7.2,360.0,10.8,'1111122,1111122,1111122' 
LOOP,urn:ioos:station:wmo:lopl1:1,2018-03-08T09:46:00Z,28.8850,-90.0250,10.0,8.2,10.0,10.8,'1111122,1111122,1111122' 
LOOP,urn:ioos:station:wmo:lopl1:1,2018-03-08T10:46:00Z,28.8850,-90.0250,10.0,8.2,10.0,10.3,'1111122,1111122,1111122' 
LOOP,urn:ioos:station:wmo:lopl1:1,2018-03-08T11:46:00Z,28.8850,-90.0250,10.0,8.1,7.0,11.2,'11111222,11111222,11111222' 
LOOP,urn:ioos:station:wmo:lopl1:1,2018-03-08T12:46:00Z,28.8850,-90.0250,10.0,7.7,360.0,11.8,'1111122,1111122,1111122' 
LOOP,urn:ioos:station:wmo:lopl1:1,2018-03-08T13:46:00Z,28.8850,-90.0250,10.0,9.6,4.0,13.3,'11111222,11111222,11111222' 
LOOP,urn:ioos:station:wmo:lopl1:1,2018-03-08T14:46:00Z,28.8850,-90.0250,10.0,9.3,20.0,10.8,'1111122,1111122,1111122' 
LOOP,urn:ioos:station:wmo:lopl1:1,2018-03-08T15:46:00Z,28.8850,-90.0250,10.0,6.7,20.0,7.9,'11111222,11111222,11111222' 
LOOP,urn:ioos:station:wmo:lopl1:1,2018-03-08T16:46:00Z,28.8850,-90.0250,10.0,6.7,10.0,8.2,'1111122,1111122,1111122' 
LOOP,urn:ioos:station:wmo:lopl1:1,2018-03-08T17:46:00Z,28.8850,-90.0250,10.0,5.7,20.0,7.2,'1111122,1111122,1111122' 
LOOP,urn:ioos:station:wmo:lopl1:1,2018-03-08T18:46:00Z,28.8850,-90.0250,10.0,5.7,40.0,6.7,'1111122,1111122,1111122' 
LOOP,urn:ioos:station:wmo:lopl1:1,2018-03-08T19:46:00Z,28.8850,-90.0250,10.0,5.1,10.0,6.7,'1111122,1111122,1111122' 
LOOP,urn:ioos:station:wmo:lopl1:1,2018-03-08T20:46:00Z,28.8850,-90.0250,10.0,7.2,30.0,8.8,'1111122,1111122,1111122' 
LOOP,urn:ioos:station:wmo:lopl1:1,2018-03-08T21:46:00Z,28.8850,-90.0250,10.0,3.1,350.0,4.6,'1111122,1111122,1111122' 
LOOP,urn:ioos:station:wmo:lopl1:1,2018-03-08T22:46:00Z,28.8850,-90.0250,10.0,1.5,50.0,3.6,'1111122,1111122,1111122' 
LOOP,urn:ioos:station:wmo:lopl1:1,2018-03-08T23:46:00Z,28.8850,-90.0250,10.0,2.1,350.0,3.1,'1111122,1111122,1111122' 
LOOP,urn:ioos:station:wmo:lopl1:1,2018-03-09T00:46:00Z,28.8850,-90.0250,10.0,2.1,10.0,3.1,'1111122,1111122,1111122' 
LOOP,urn:ioos:station:wmo:lopl1:1,2018-03-09T01:46:00Z,28.8850,-90.0250,10.0,2.1,10.0,3.1,'1111122,1111122,1111122' 
LOOP,urn:ioos:station:wmo:lopl1:1,2018-03-09T02:46:00Z,28.8850,-90.0250,10.0,0.5,30.0,1.0,'1111122,1111122,1111122' 
LOOP,urn:ioos:station:wmo:lopl1:1,2018-03-09T03:46:00Z,28.8850,-90.0250,10.0,0.0,-9999.0,1.0,'1114422,1111122,1111122' 
LOOP,urn:ioos:station:wmo:lopl1:1,2018-03-09T04:46:00Z,28.8850,-90.0250,10.0,1.0,110.0,1.5,'1111122,1111122,1111122' 
LOOP,urn:ioos:station:wmo:lopl1:1,2018-03-09T05:46:00Z,28.8850,-90.0250,10.0,0.0,-9999.0,1.0,'1114422,1111122,1111122' 
LOOP,urn:ioos:station:wmo:lopl1:1,2018-03-09T06:46:00Z,28.8850,-90.0250,10.0,0.9,332.0,2.0,'11111222,11111222,11111222' 
LOOP,urn:ioos:station:wmo:lopl1:1,2018-03-09T07:51:00Z,28.8850,-90.0250,10.0,0.5,290.0,1.5,'1111122,1111122,1111122' 
LOOP,urn:ioos:station:wmo:lopl1:1,2018-03-09T08:51:00Z,28.8850,-90.0250,10.0,2.1,30.0,3.1,'1111122,1111122,1111122' 
LOOP,urn:ioos:station:wmo:lopl1:1,2018-03-09T09:51:00Z,28.8850,-90.0250,10.0,2.6,20.0,3.6,'1111122,1111122,1111122' 